星链-2573 (STARLINK-2573 )

导读 | 豆包AI

STARLINK-2573是美国SpaceX星链星座中的一颗卫星,于2021年5月4日发射入轨,属于星链低轨互联网星座建设的组成部分。星链计划旨在通过大规模低轨卫星组网,为全球提供覆盖广泛的高速互联网接入服务,该卫星承担着完善星座覆盖、提升服务容量的作用,支撑星座的全球通信服务能力。

Basic Information
目录编号:
48394
目录名称:
STARLINK-2573
国际标识:
2021-038AT
轨道中心:
EARTH
卫星名称:
星链-2573
卫星全名:
星链-2573 (STARLINK-2573 )
卫星状态:
已陨落 最后检测时间 2025-01-08
发射日期:
2021-05-04 UTC
国别 :
美国 (US)
星等 :
--
Orbit Information
数据来源 国际轨道数据
星历时间: 2025-01-08T09:14:51+0800
轨道信息已过期430天
半长轴: 6566.829km
偏心率: 0.0005085
轨道倾角: 53.035°
近地点辐角 336.726°
升交点赤经 74.684°
平近点角 120.190°
近地点: 185.354km
远地点: 192.034km
周期: 88.266分钟
每日圈数: 16.314329
Detailed Information
固有亮度:
5
最大亮度:
2.5
卫星平台:
Starlink V1.0
覆盖范围:
全球
运营商:
太空探索技术公司
运营商所在国:
美国
制造商(研发单位):
太空探索技术公司
制造商所在国:
美国
使用方式:
暂无
Satellite Introduction
星链(Starlink)计划是由太空探索技术公司(SpaceX)提出的一个巨型低轨卫星互联网星座项目,计划在2019年至2024年间在太空搭建由约1.2万颗卫星组成的“星链”网络,其中1584颗将部署在地球上空550千米处的近地轨道,并从2020年开始工作。该卫星仍在工作。